sat.trackr.live / text

‹ back to catalog

STARLINK-6184

NORAD 57081 · 2023-088AK

PAYLOAD ACTIVE UNKNOWN

§ Identity

Operator
Country
US
Launch date
2023-06-22
Launch site
AFWTR
Launch vehicle
Mass (kg)
RCS (m²)

Purposes: comms

External: N2YO · Heavens-Above · Gunter

§ Orbital elements

Epoch: 2026-09-20T21:05:17.365344Z

Period
94.27 min
Inclination
43.0020°
Eccentricity
0.0001663
Mean motion
15.27578975 rev/d
Perigee alt
481.9 km
Apogee alt
484.2 km
Semi-major
6,861.2 km
B*
2.9885e-5
RAAN
73.6589°
Arg perigee
247.3074°
Mean anomaly
112.7602°
Rev number
18,035

§ Raw data

STARLINK-61841 57081U 23088AK  26263.87867321  .00000560  00000+0  29885-4 0  99992 57081  43.0020  73.6589 0001663 247.3074 112.7602 15.27578975180355

JSON: /api/v1/satellites/57081 · /tle

For live sub-satellite position, see the globe view (requires WebGL).

§ Visibility from observer

Set your observer location to see the next 7 days of passes ≥ 10°. The values pass through the URL so the page stays shareable.

No JS? Fill the form by hand. The geolocation button needs JavaScript.